GW5434 Weather Reports


Display with metric or nautical units.
time (UTC)temp
F
wind
direction
speed
MPH
gust
MPH
rain 1hr
in
rain 24hr
in
rain mn
in
humidity
%
barometer
mb
20260906214540 99 131 2.0 4.0 0.00 0.00 0.00 48 1010.0
20260906213012 99 249 2.0 4.0 0.00 0.00 0.00 50 1010.0
20260906211516 98 248 1.0 4.0 0.00 0.00 0.00 50 1010.3
20260906210033 99 286 2.0 5.0 0.00 0.00 0.00 52 1010.6
20260906204528 99 278 2.0 5.0 0.00 0.00 0.00 51 1010.7
20260906203031 98 101 3.0 6.0 0.00 0.00 0.00 52 1010.8
20260906201529 98 274 2.0 5.0 0.00 0.00 0.00 52 1010.9
20260906200016 98 287 3.0 6.0 0.00 0.00 0.00 52 1011.1
20260906194523 98 276 3.0 6.0 0.00 0.00 0.00 52 1011.4
20260906193008 99 234 1.0 6.0 0.00 0.00 0.00 50 1011.6
20260906191509 99 121 3.0 7.0 0.00 0.00 0.00 50 1011.7
20260906190015 98 84 2.0 7.0 0.00 0.00 0.00 51 1011.8
20260906184517 98 69 1.0 3.0 0.00 0.00 0.00 51 1012.0
20260906183024 97 124 2.0 5.0 0.00 0.00 0.00 52 1012.4
20260906181511 96 326 2.0 5.0 0.00 0.00 0.00 55 1012.7
20260906180011 95 298 4.0 8.0 0.00 0.00 0.00 54 1012.8
20260906174515 94 248 1.0 7.0 0.00 0.00 0.00 55 1013.0
20260906173023 94 179 2.0 5.0 0.00 0.00 0.00 57 1013.2
20260906171527 93 290 3.0 7.0 0.00 0.00 0.00 56 1013.3
20260906170007 92 18 2.0 7.0 0.00 0.00 0.00 60 1013.5
20260906164520 91 307 1.0 5.0 0.00 0.00 0.00 62 1013.7
20260906163024 91 285 2.0 4.0 0.00 0.00 0.00 64 1013.9
20260906161526 90 347 4.0 8.0 0.00 0.00 0.00 67 1013.9
20260906160028 88 296 2.0 6.0 0.00 0.00 0.00 70 1014.0
20260906154507 88 283 3.0 6.0 0.00 0.00 0.00 72 1014.1
20260906153014 87 356 3.0 5.0 0.00 0.00 0.00 73 1014.3
20260906151520 87 274 3.0 6.0 0.00 0.00 0.00 74 1014.4
20260906150029 87 6 1.0 4.0 0.00 0.00 0.00 77 1014.2
20260906144529 85 25 1.0 5.0 0.00 0.00 0.00 78 1014.3
20260906143009 84 293 1.0 4.0 0.00 0.00 0.00 79 1014.1
20260906141515 83 336 1.0 4.0 0.00 0.00 0.00 82 1014.3
20260906140021 82 249 2.0 3.0 0.00 0.00 0.00 83 1014.4
20260906134527 81 262 1.0 4.0 0.00 0.00 0.00 85 1014.5
20260906133041 80 281 0.0 2.0 0.00 0.00 0.00 87 1014.5
20260906131513 80 328 0.0 0.0 0.00 0.00 0.00 88 1014.5
20260906130017 77 259 0.0 1.0 0.00 0.00 0.00 93 1014.2
20260906124524 75 125 0.0 0.0 0.00 0.00 0.00 95 1014.1
20260906123037 73 125 0.0 0.0 0.00 0.00 0.00 95 1014.1
20260906121542 72 125 0.0 0.0 0.00 0.00 0.00 95 1014.2
20260906120012 72 125 0.0 0.0 0.00 0.00 0.00 95 1014.0
20260906114526 72 125 0.0 0.0 0.00 0.00 0.00 95 1013.9
20260906113024 72 125 0.0 0.0 0.00 0.00 0.00 94 1013.7
20260906111529 72 125 0.0 0.0 0.00 0.00 0.00 94 1013.5
20260906110030 72 125 0.0 0.0 0.00 0.00 0.00 95 1013.4
20260906104517 72 125 0.0 0.0 0.00 0.00 0.00 94 1013.2
20260906103021 72 125 0.0 0.0 0.00 0.00 0.00 94 1013.1
20260906101527 72 125 0.0 0.0 0.00 0.00 0.00 95 1013.1
20260906100038 72 125 0.0 0.0 0.00 0.00 0.00 94 1013.0
20260906094532 72 125 0.0 0.0 0.00 0.00 0.00 94 1013.0
20260906093033 72 125 0.0 0.0 0.00 0.00 0.00 94 1012.9
20260906091525 73 125 0.0 0.0 0.00 0.00 0.00 94 1012.7
20260906090030 73 125 0.0 0.0 0.00 0.00 0.00 94 1012.8
20260906084529 73 126 0.0 0.0 0.00 0.00 0.00 94 1012.7
20260906083030 73 127 0.0 0.0 0.00 0.00 0.00 94 1012.6
20260906081539 73 127 0.0 0.0 0.00 0.00 0.00 94 1012.5
20260906071533 73 117 0.0 0.0 0.00 0.00 0.00 93 1012.2
20260906070035 73 117 0.0 0.0 0.00 0.00 0.00 93 1012.3
20260906064526 74 117 0.0 0.0 0.00 0.00 0.00 93 1012.4
20260906063031 74 117 0.0 0.0 0.00 0.00 0.00 93 1012.4
20260906061534 74 117 0.0 0.0 0.00 0.00 0.00 93 1012.3
20260906060031 74 117 0.0 0.0 0.00 0.00 0.00 93 1012.5
20260906054526 74 117 0.0 0.0 0.00 0.00 0.00 92 1012.5
20260906053036 74 117 0.0 0.0 0.00 0.00 0.00 92 1012.6
20260906051531 75 117 0.0 0.0 0.00 0.00 0.00 92 1012.5
20260906050042 75 117 0.0 0.0 0.00 0.00 0.00 92 1012.5
20260906044515 75 117 0.0 0.0 0.00 0.00 0.00 92 1012.6
20260906043002 75 117 0.0 0.0 0.00 0.00 0.00 91 1012.6
20260906041503 75 113 0.0 0.0 0.00 0.00 0.00 91 1012.6
20260906040010 76 128 0.0 0.0 0.00 0.00 0.00 91 1012.7
20260906034523 76 128 0.0 0.0 0.00 0.00 0.00 91 1012.8
20260906033014 76 113 0.0 0.0 0.00 0.00 0.00 90 1013.0
20260906031502 77 116 0.0 0.0 0.00 0.00 0.00 89 1013.1
20260906030007 77 122 0.0 0.0 0.00 0.00 0.00 90 1013.1
20260906024512 77 122 0.0 0.0 0.00 0.00 0.00 89 1013.1
20260906023018 78 119 0.0 0.0 0.00 0.00 0.00 88 1012.9
20260906021519 78 119 0.0 0.0 0.00 0.00 0.00 87 1012.8
20260906020006 79 119 0.0 0.0 0.00 0.00 0.00 86 1012.6
20260906014508 79 122 0.0 0.0 0.00 0.00 0.00 85 1012.4
20260906013014 80 111 0.0 0.0 0.00 0.00 0.00 84 1012.3
20260906011523 81 225 0.0 0.0 0.00 0.00 0.00 81 1012.2
20260906010020 82 152 0.0 1.0 0.00 0.00 0.00 80 1012.2
20260906004505 83 171 1.0 2.0 0.00 0.00 0.00 78 1011.9
20260906003010 84 209 0.0 5.0 0.00 0.00 0.00 77 1011.9
20260906001518 85 120 2.0 7.0 0.00 0.00 0.00 76 1011.9
20260906000024 86 175 4.0 10.0 0.00 0.00 0.00 74 1011.9
20260905234520 88 123 0.0 1.0 0.00 0.00 0.00 74 1011.8
20260905233012 91 140 0.0 1.0 0.00 0.00 0.00 65 1011.7
20260905231515 92 139 0.0 1.0 0.00 0.00 0.00 63 1011.9
20260905230019 93 86 0.0 3.0 0.00 0.00 0.00 62 1011.7
20260905224526 94 327 2.0 4.0 0.00 0.00 0.00 59 1011.7
20260905223031 92 166 2.0 6.0 0.00 0.00 0.00 61 1011.6
20260905221513 93 49 2.0 5.0 0.00 0.00 0.00 59 1011.6
20260905220014 93 27 1.0 7.0 0.00 0.00 0.00 60 1011.5